User: anonymous
Location: Kailua
(21.4020°N, 157.7390°W)
Time: 07:23:14
(UTC-10:00)
Language:

Cosmos 2221 Rocket - Orbit

View from above orbital plane
View from above orbital plane
View from above satellite
View from above satellite

Ground track
Ground track

The orbit data is extracted from the following two-line orbital elements,

1 22237U 92080B   14113.56775113  .00000587  00000-0  78371-4 0  3073
2 22237 082.5101 107.7748 0019788 011.9381 127.5013 14.77824568153465
Epoch (UTC): 23 April 2014 13:37:33
Eccentricity: 0.0019788
inclination: 82.5101°
perigee height: 622 km
apogee height: 650 km
right ascension of ascending node: 107.7748°
argument of perigee: 11.9381°
revolutions per day: 14.77824568
mean anomaly at epoch: 127.5013°
orbit number at epoch: 15346

The dashed part of the orbit path shows where the satellite is in the earth's shadow,  

DLR